Simultaneous Nadir Overpasses (SNOs) Predictions

Prediction of SNOs between AURA and NPP Satellite Orbit:

Table of predicted SNOs for the next 14.0 days since TLE Epoch: 5/28/2022
Index Date (AURA) Time (AURA) Lat,Lon (AURA) SZA (AURA ) Date (NPP) Time (NPP) Lat,Lon (NPP) SZA (NPP ) Distance(km) Time Diff (sec)
1 05/28/2022 03:41:49 -79.33,-159.75 108.57 05/28/2022 03:41:12 -79.32,-159.86 108.53 2.45 37
2 05/28/2022 04:31:07 79.63, 9.96 70.98 05/28/2022 04:31:47 79.63, 9.98 70.95 0.47 40
3 05/30/2022 19:58:12 -79.40, -43.36 109.07 05/30/2022 19:58:02 -79.40, -43.49 109.04 2.85 10
4 05/30/2022 20:47:30 79.70, 126.35 70.49 05/30/2022 20:48:37 79.70, 126.37 70.44 0.29 67
5 06/02/2022 11:25:13 79.25, -96.10 70.82 06/02/2022 11:24:13 79.24, -96.20 70.89 2.36 60
6 06/02/2022 12:14:32 -79.57, 73.66 109.65 06/02/2022 12:14:49 -79.57, 73.68 109.66 0.31 17
7 06/05/2022 03:41:34 79.35, 20.47 70.38 06/05/2022 03:41:02 79.35, 20.37 70.43 2.25 32
8 06/05/2022 04:30:54 -79.63,-169.99 110.04 06/05/2022 04:31:39 -79.63,-169.98 110.07 0.34 45
9 06/07/2022 19:57:52 79.51, 137.41 69.91 06/07/2022 19:57:48 79.51, 137.47 69.90 1.31 4
10 06/07/2022 20:47:15 -79.67, -53.80 110.34 06/07/2022 20:48:29 -79.66, -53.93 110.37 2.53 74
11 06/10/2022 11:24:55 -79.27, 84.09 109.94 06/10/2022 11:24:03 -79.27, 84.02 109.89 1.66 52



Historial Predications of SNOs between AURA and NPP
